This is the latest recevied weather packets stored in our database for station/object KK7RJD. If no packets are shown the sender has not sent any weather packets the latest 10 day(s).
| Time | Temp. | Humidity | Pressure | Rain* | Wind** | Luminosity | Snow |
|---|---|---|---|---|---|---|---|
| 1778028311 | 7.22° C | 41% | 1015.8 hPa | 0 mm | - | 146 W/m² | - |
| 1778028008 | 6.67° C | 42% | 1015.7 hPa | 0 mm | - | 187 W/m² | - |
| 1778027704 | 7.22° C | 41% | 1015.8 hPa | 0 mm | - | 181 W/m² | - |
| 1778027400 | 7.22° C | 41% | 1015.7 hPa | 0 mm | - | 200 W/m² | - |
| 1778027096 | 7.22° C | 42% | 1015.6 hPa | 0 mm | - | 231 W/m² | - |
| 1778026792 | 7.22° C | 41% | 1015.6 hPa | 0 mm | - | 261 W/m² | - |
| 1778026489 | 7.22° C | 45% | 1015.8 hPa | 0 mm | - | 270 W/m² | - |
| 1778026186 | 7.22° C | 41% | 1015.6 hPa | 0 mm | - | 251 W/m² | - |
| 1778025884 | 7.22° C | 43% | 1015.6 hPa | 0 mm | - | 231 W/m² | - |
| 1778025580 | 7.22° C | 43% | 1015.7 hPa | 0 mm | - | 275 W/m² | - |
| 1778025279 | 6.67° C | 42% | 1015.7 hPa | 0 mm | - | 302 W/m² | - |
| 1778024975 | 6.67° C | 43% | 1015.6 hPa | 0 mm | - | 192 W/m² | - |
| 1778024673 | 7.22° C | 43% | 1015.4 hPa | 0 mm | - | 157 W/m² | - |
| 1778024369 | 7.22° C | 39% | 1015.4 hPa | 0 mm | - | 213 W/m² | - |
| 1778024067 | 6.67° C | 43% | 1015.4 hPa | 0 mm | - | 222 W/m² | - |
| 1778023764 | 7.22° C | 43% | 1015.4 hPa | 0 mm | - | 261 W/m² | - |
| 1778023462 | 6.67° C | 42% | 1015.4 hPa | 0 mm | - | 255 W/m² | - |
| 1778023159 | 6.67° C | 39% | 1015.4 hPa | 0 mm | - | 175 W/m² | - |
| 1778022856 | 6.67° C | 39% | 1015.3 hPa | 0 mm | - | 73 W/m² | - |
| 1778022554 | 6.67° C | 39% | 1015.1 hPa | 0 mm | - | 78 W/m² | - |
| 1778022252 | 6.67° C | 39% | 1015.4 hPa | 0 mm | - | 99 W/m² | - |
| 1778021948 | 6.67° C | 38% | 1015.2 hPa | 0 mm | - | 109 W/m² | - |
| 1778021645 | 7.22° C | 38% | 1015.1 hPa | 0 mm | - | 161 W/m² | - |
| 1778021340 | 7.22° C | 39% | 1015.1 hPa | 0 mm | - | 167 W/m² | - |
| 1778021038 | 6.67° C | 41% | 1015.1 hPa | 0 mm | - | 227 W/m² | - |
* Rain latest hour (hover to see other rain measurements)
** Current wind speed in m/s (hover to see current wind gust speed)